Retour au catalogue

ATLAS 5 CENTAUR DEB

LostHEO
NORAD 46643·DEBRIS·🇺🇸 United States

Lancé Sep 17, 2014 depuis Cape Canaveral Space Force Station

Loading…

Prochains Passages (prochaines 24 heures)

TLE

PériméSource: Space-Track

Époque: Sep 6, 2025, 12:23 UTC

1 46643U 14055CT  25249.51605884  .00000007  00000-0  00000-0 0  9994
2 46643  19.6990 176.1856 4903766 112.4077 305.5009  1.85047316 33227

Suivez ATLAS 5 CENTAUR DEB en temps réel avec AllMySat

Download on the App Store